Location: The Saddle
(36.8333°N, 80.3417°W)
Time: 03:52:19
(UTC-04:00)

S-56A Canister/Altair - All Passes

Search period start: 20 July 2024 00:00
Search period end: 30 July 2024 00:00
Orbit: 638 x 2488 km, 38.9° (Epoch: 19 July)

Date Brightness Start Highest point End Pass type
(mag) Time Alt. Az. Time Alt. Az. Time Alt. Az.
20 Jul - 11:43:45 10° SSW 11:49:36 27° SSE 11:54:03 10° E daylight
20 Jul - 13:47:27 10° WSW 13:53:14 78° SSE 13:57:48 10° ENE daylight
20 Jul - 15:52:13 10° W 15:56:55 68° N 16:01:26 10° E daylight
20 Jul - 17:56:03 10° WNW 18:00:28 62° SSW 18:05:41 10° ESE daylight
20 Jul - 20:00:34 10° WSW 20:03:55 17° SSW 20:07:55 10° S daylight
21 Jul - 11:09:55 10° SSW 11:15:56 24° SSE 11:20:31 10° E daylight
21 Jul - 13:13:26 10° WSW 13:19:42 71° SSE 13:24:24 10° ENE daylight
21 Jul - 15:18:27 10° W 15:23:24 68° N 15:27:50 10° E daylight
21 Jul - 17:22:33 10° WNW 17:26:59 71° SSW 17:31:55 10° ESE daylight
21 Jul - 19:26:53 10° WSW 19:30:21 20° SSW 19:34:27 10° SSE daylight
22 Jul - 10:36:06 10° SSW 10:42:13 22° SSE 10:46:56 10° E daylight
22 Jul - 12:39:21 10° WSW 12:46:08 64° SSE 12:51:02 10° ENE daylight
22 Jul - 14:44:35 10° W 14:49:52 69° N 14:54:20 10° E daylight
22 Jul - 16:49:00 10° WNW 16:53:32 80° SSW 16:58:14 10° ESE daylight
22 Jul - 18:53:13 10° W 18:56:48 22° SSW 19:00:59 10° SSE daylight
23 Jul - 10:02:17 10° S 10:08:27 21° SSE 10:13:15 10° ESE daylight
23 Jul - 12:05:12 10° SW 12:12:32 58° SSE 12:17:39 10° E daylight
23 Jul - 14:10:36 10° W 14:16:20 72° N 14:20:52 10° E daylight
23 Jul - 16:15:21 10° WNW 16:20:03 88° S 16:24:36 10° ESE daylight
23 Jul - 18:19:34 10° W 18:23:18 25° SSW 18:27:30 10° SSE daylight
24 Jul - 09:28:30 10° S 09:34:39 19° SSE 09:39:30 10° ESE daylight
24 Jul - 11:30:59 10° SW 11:38:52 53° SSE 11:44:17 10° E daylight
24 Jul - 13:36:30 10° W 13:42:45 76° N 13:47:27 10° ENE daylight
24 Jul - 15:41:37 10° WNW 15:46:33 84° NNE 15:51:02 10° ESE daylight
24 Jul - 17:45:55 10° W 17:49:49 29° SSW 17:54:03 10° SSE daylight
25 Jul - 08:54:49 10° S 09:00:46 17° SE 09:05:36 10° ESE daylight
25 Jul - 10:56:43 10° SW 11:05:09 49° SSE 11:10:52 10° E daylight
25 Jul - 13:02:17 10° W 13:09:09 81° N 13:14:05 10° ENE daylight
25 Jul - 15:07:47 10° WNW 15:13:03 79° N 15:17:30 10° E daylight
25 Jul - 17:12:14 10° W 17:16:21 35° SSW 17:20:36 10° SE daylight
26 Jul - 08:21:14 10° S 08:26:51 16° SE 08:31:32 10° ESE daylight
26 Jul - 10:22:27 10° SW 10:31:22 45° SSE 10:37:27 10° E daylight
26 Jul - 12:27:58 10° WSW 12:35:31 86° NNW 12:40:43 10° ENE daylight
26 Jul - 14:33:50 10° W 14:39:30 75° N 14:44:01 10° E daylight
26 Jul - 16:38:31 10° W 16:42:55 42° SSW 16:47:11 10° SE daylight
27 Jul - 07:47:52 10° SSE 07:52:53 14° SE 07:57:12 10° ESE daylight
27 Jul - 09:48:08 10° SW 09:57:33 42° SSE 10:03:58 10° E daylight
27 Jul - 11:53:34 10° WSW 12:01:50 88° SSE 12:07:21 10° ENE daylight
27 Jul - 13:59:45 10° W 14:05:55 73° N 14:10:34 10° E daylight
27 Jul - 16:04:44 10° W 16:09:27 50° SSW 16:13:45 10° SE daylight
28 Jul - 07:14:51 10° SSE 07:18:52 12° SE 07:22:29 10° ESE daylight
28 Jul - 09:13:49 10° SSW 09:23:38 38° SSE 09:30:26 10° E daylight
28 Jul - 11:19:05 10° WSW 11:28:05 83° SSE 11:33:59 10° ENE daylight
28 Jul - 13:25:33 10° W 13:32:18 72° N 13:37:10 10° E daylight
28 Jul - 15:30:52 10° WNW 15:35:59 59° SSW 15:40:21 10° SE daylight
28 Jul - 17:37:12 10° WSW 17:38:50 12° SW 17:40:30 10° SSW daylight
29 Jul - 06:42:45 10° SSE 06:44:49 11° SE 06:46:47 10° SE daylight
29 Jul - 08:39:32 10° SSW 08:49:40 36° SSE 08:56:50 10° E daylight
29 Jul - 10:44:32 10° WSW 10:54:17 78° SSE 11:00:36 10° ENE daylight
29 Jul - 12:51:13 10° W 12:58:38 73° N 13:03:46 10° E daylight
29 Jul - 14:56:55 10° WNW 15:02:30 70° SSW 15:06:58 10° ESE daylight
29 Jul - 17:02:43 10° WSW 17:05:22 15° SW 17:07:56 10° S daylight
